Regional Weather Roundup
Issued by NWS

Home | Current Version | Previous Version | Text Only | Print | Product List | Glossary On
Versions: 1 2 3 4 5 6 7 8 9 10 11 12 13 14 15 16 17 18 19 20 21 22 23 24 25 26 27 28 29 30 31 32 33 34 35 36 37 38 39 40 41 42 43 44 45 46 47 48 49 50
000
ASUS43 KDTX 181301
RWRMI
MICHIGAN HOURLY REGIONAL WEATHER ROUNDUP
NATIONAL WEATHER SERVICE DETROIT/PONTIAC MI
800 AM EST SAT NOV 18 2017

NOTE: "FAIR" INDICATES FEW OR NO CLOUDS BELOW 12,000 FEET WITH NO
SIGNIFICANT WEATHER AND/OR OBSTRUCTION TO VISIBILITY.

MIZ047>049-052>055-059>063-066>070-074>076-081>083-181400-
SOUTHEAST LOWER MICHIGAN

CITY           SKY/WX    TMP DP  RH WIND       PRES   REMARKS
ADRIAN         CLOUDY    44  43  96 S9        29.52F FOG
ALMA           FOG       41  41 100 CALM      29.50F VSB 1/2
ANN ARBOR      CLOUDY    43  43 100 S3        29.52F FOG
BAD AXE        CLOUDY    40  40  99 S3        29.51F
CARO           CLOUDY    42  41  98 SW3       29.51R
DETROIT CITY   CLOUDY    59  43  55 S5        29.54F
DETROIT        CLOUDY    44  44 100 S6        29.54F FOG
FLINT          CLOUDY    43  41  93 S7        29.52F FOG
GROSSE ILE     CLOUDY    44  43  97 S6        29.53F FOG
HILLSDALE      CLOUDY    43  43 100 CALM      29.48F FOG
HOWELL         CLOUDY    42  42 100 CALM      29.51F FOG

CITY           SKY/WX    TMP DP  RH WIND       PRES   REMARKS
JACKSON        CLOUDY    45  42  89 CALM      29.50F FOG
LAMBERTVILLE   CLOUDY    47  45  92 S6        29.53F FOG
LANSING        CLOUDY    43  43 100 S3        29.51F FOG
LAPEER         CLOUDY    42  42  97 S5        29.53R
MASON          CLOUDY    44  42  93 CALM      29.51F FOG
MONROE         CLOUDY    46  44  93 S3        29.53S FOG
MT. CLEMENS    DRIZZLE   43  43 100 CALM      29.51F FOG
PONTIAC        DRIZZLE   42  42 100 CALM      29.51F FOG
PORT HOPE        N/A     42  39  89 SW5       29.49F
PORT HURON     CLOUDY    43  41  93 S5        29.54S FOG
TRI CITIES     CLOUDY    42  42 100 CALM      29.50F FOG
MIDLAND        CLOUDY    42  42  99 CALM      29.49F FOG
TROY           CLOUDY    45  43  93 SW3       29.55F FOG
SAGINAW HB     CLOUDY    41  41 100 W3        29.50S
$$
MIZ043>046-050>051-056>058-064>065-071>073-077>080-181400-
SOUTHWEST LOWER MICHIGAN

CITY           SKY/WX    TMP DP  RH WIND       PRES   REMARKS
BATTLE CREEK   CLOUDY    44  43  96 E3        29.48F FOG
BENTON HARBOR  CLOUDY    45  43  93 CALM      29.47S FOG
BIG RAPIDS     CLOUDY    39  37  92 N5        29.46F
COLDWATER      CLOUDY    45  45 100 CALM      29.47F FOG
FREMONT        CLOUDY    39  39 100 N3        29.50R
HOLLAND        CLOUDY    43  40  89 NE8       29.48F
GRAND RAPIDS   DRIZZLE   43  43 100 N7        29.49S FOG
KALAMAZOO      CLOUDY    44  41  89 CALM      29.48F FOG
LUDINGTON      CLOUDY    40  38  95 CALM      29.50R
MARSHALL       CLOUDY    43  43  98 CALM      29.49F FOG
MOUNT PLEASANT CLOUDY    42  40  95 CALM      29.48F FOG
MUSKEGON       CLOUDY    42  38  85 NE5       29.50F
SOUTH HAVEN    CLOUDY    45  44  96 NE9       29.47F FOG
$$
MIZ016>042-181400-
NORTHERN LOWER MICHIGAN

CITY           SKY/WX    TMP DP  RH WIND       PRES   REMARKS
ALPENA         CLOUDY    36  36 100 NW3       29.51S FOG
BEAVER ISLAND  CLOUDY    38  37  97 N6        29.55R WCI  33
BELLAIRE       CLOUDY    37  37 100 CALM      29.52R FOG
CADILLAC       CLOUDY    38  37  99 CALM      29.46F FOG
CHARLEVOIX     CLOUDY    38  38 100 CALM      29.55R FOG
FRANKFORT      CLOUDY    42  38  88 N5        29.50F
GAYLORD        FOG       34  33  96 NE3       29.47F VSB 1/4
GRAYLING       FOG       35  34  95 CALM      29.49F VSB 1/4
HARBOR SPRINGS CLOUDY    35  34  98 CALM      29.54R FOG
HOUGHTON LAKE  FOG       37  36  96 CALM      29.48F VSB 1/4
MANISTEE       CLOUDY    41  38  89 N6        29.51R
OSCODA         CLOUDY    39  38  97 CALM      29.50R FOG
PELLSTON       CLOUDY    34  34 100 W6        29.55R FOG     WCI  29
ROGERS CITY    CLOUDY    35  34  97 W3        29.52F FOG
TRAVERSE CITY  CLOUDY    40  39  97 CALM      29.47F
$$
MIZ007>008-015-181400-
EASTERN UPPER MICHIGAN

CITY           SKY/WX    TMP DP  RH WIND       PRES   REMARKS
KINROSS        CLOUDY    32  32 100 N6        29.54R FOG     WCI  26
MACKINAC ISLAN CLOUDY    36  36 100 N9        29.54R FOG     WCI  29
NEWBERRY       CLOUDY    33  32  96 N3        29.56R
S. S. MARIE    CLOUDY    35  33  92 CALM      29.55R
MUNISING         N/A     40  37  89 N16       29.58S WCI  31
$$
MIZ004>006-011>014-085-181400-
CENTRAL UPPER MICHIGAN

CITY           SKY/WX    TMP DP  RH WIND       PRES   REMARKS
MANISTIQUE     CLOUDY    36  31  83 N8        29.56F WCI  29
ESCANABA       CLOUDY    37  35  92 N6        29.59R WCI  32
MENOMINEE      CLOUDY    36  34  92 N7        29.60S FOG     WCI  30
SAWYER-GWINN   CLOUDY    36  34  93 N13G20    29.59R WCI  27
$$
MIZ001>003-009>011-084-181400-
WESTERN UPPER MICHIGAN

CITY           SKY/WX    TMP DP  RH WIND       PRES   REMARKS
IRON MOUNTAIN  CLOUDY    35  31  85 N9        29.59S FOG     WCI  28
HOUGHTON       CLOUDY    35  29  78 N6        29.63S WCI  30
COPPER HARBOR    N/A     38  33  82 NE20      29.63F WCI  28
IRONWOOD       CLOUDY   N/A N/A N/A N3        29.68R
$$

ABBREVIATIONS USED IN REMARKS
   TC - TEMPERATURE IN CELSIUS
  WCI - WIND CHILL INDEX
   HX - HEAT INDEX
  VSB - VISIBILITY




USA.gov is the U.S. government's official web portal to all federal, state and local government web resources and services.